Decatur, IL

1:34 PM CST on February 21, 2017 (GMT -0600)
Decatur

Weather History for KDEC - April, 2013

Change the Weather History Date:

Monday, April 8, 2013

  Actual Average Record
Temperature  
Mean Temperature 66 °F 50 °F  
Max Temperature 75 °F 61 °F 82 °F (2001)
Min Temperature 57 °F 39 °F 23 °F (1997)
Degree Days  
Heating Degree Days 0 15  
Month to date heating degree days 127 132  
Since 1 July heating degree days 5004 5116  
Cooling Degree Days 1 0  
Month to date cooling degree days 1 0  
Year to date cooling degree days 1 1  
Growing Degree Days 16 (Base 50)    
Moisture  
Dew Point 55 °F    
Average Humidity 67    
Maximum Humidity 84    
Minimum Humidity 50    
Precipitation  
Precipitation 0.07 in 0.12 in 0.68 in (2002)
Month to date precipitation 0.07 0.82  
Year to date precipitation 5.15 7.18  
Sea Level Pressure  
Sea Level Pressure 29.81 in    
Wind  
Wind Speed 13 mph (South)    
Max Wind Speed 24 mph    
Max Gust Speed 32 mph    
Visibility 10 miles    
Events Rain , Thunderstorm    
T = Trace of Precipitation, MM = Missing Value Source: NWS Daily Summary

Daily Weather History Graph

Daily Weather History Graph

Search for Another Location

Airport or City:

Trip Planner

Search our weather history database for the weather conditions in past years. The results will help you decide how hot, cold, wet, or windy it might be!

Date:

Astronomy

Apr. 08, 2013 Rise Set
Actual Time 6:28 AM CDT 7:26 PM CDT
Civil Twilight 6:00 AM CDT 7:54 PM CDT
Nautical Twilight 5:27 AM CDT 8:27 PM CDT
Astronomical Twilight 4:53 AM CDT 9:01 PM CDT
Moon 5:18 AM CDT (4/8) 6:01 PM CDT (4/8)
Length of Visible Light 13h 54m
Length of Day
12h 58m
Waning Crescent, 3% of the Moon is Illuminated
Apr 8
Waning Crescent
Apr 10
New
Apr 18
First Quarter
Apr 25
Full
May 2
Last Quarter

Hourly Weather History & Observations

Time (CDT) Temp. Dew Point Humidity Pressure Visibility Wind Dir Wind Speed Gust Speed Precip Events Conditions
12:54 AM 60.1 °F 51.1 °F 72% 29.86 in 10.0 mi SSE 11.5 mph - N/A   Overcast
1:54 AM 60.1 °F 54.0 °F 80% 29.81 in 10.0 mi SSE 13.8 mph - 0.00 in   Mostly Cloudy
2:54 AM 59.0 °F 54.0 °F 83% 29.78 in 10.0 mi SSE 16.1 mph - 0.00 in   Overcast
3:54 AM 59.0 °F 54.0 °F 83% 29.77 in 10.0 mi SSE 15.0 mph 23.0 mph N/A   Mostly Cloudy
4:54 AM 59.0 °F 53.1 °F 81% 29.76 in 10.0 mi South 17.3 mph 25.3 mph N/A   Mostly Cloudy
5:54 AM 59.0 °F 53.1 °F 81% 29.77 in 7.0 mi South 19.6 mph 27.6 mph 0.02 in Rain , Thunderstorm Rain
6:16 AM 57.2 °F 53.6 °F 88% 29.72 in 9.0 mi South 21.9 mph 28.8 mph 0.04 in Rain Light Rain
6:54 AM 57.9 °F 53.1 °F 84% 29.75 in 10.0 mi South 16.1 mph 24.2 mph 0.04 in   Partly Cloudy
7:54 AM 59.0 °F 53.1 °F 81% 29.76 in 10.0 mi South 15.0 mph - N/A   Scattered Clouds
8:54 AM 63.0 °F 54.0 °F 72% 29.76 in 10.0 mi SW 18.4 mph 32.2 mph N/A   Scattered Clouds
9:54 AM 66.0 °F 55.0 °F 68% 29.78 in 10.0 mi SW 18.4 mph - N/A   Mostly Cloudy
10:54 AM 66.9 °F 55.0 °F 66% 29.80 in 10.0 mi WSW 13.8 mph 24.2 mph N/A   Overcast
11:54 AM 70.0 °F 55.0 °F 59% 29.81 in 10.0 mi WSW 15.0 mph 21.9 mph N/A   Mostly Cloudy
12:54 PM 71.1 °F 55.0 °F 57% 29.81 in 10.0 mi WSW 13.8 mph 20.7 mph N/A   Scattered Clouds
1:54 PM 73.9 °F 55.9 °F 53% 29.79 in 10.0 mi WSW 11.5 mph 20.7 mph N/A   Scattered Clouds
2:54 PM 73.0 °F 55.0 °F 53% 29.80 in 10.0 mi West 8.1 mph - N/A   Overcast
3:54 PM 75.0 °F 55.9 °F 51% 29.80 in 10.0 mi SW 11.5 mph - N/A   Overcast
4:54 PM 73.9 °F 55.9 °F 53% 29.81 in 10.0 mi South 11.5 mph - N/A   Overcast
5:54 PM 71.1 °F 57.0 °F 61% 29.84 in 10.0 mi SSW 12.7 mph - N/A   Mostly Cloudy
6:54 PM 70.0 °F 57.0 °F 63% 29.85 in 10.0 mi South 11.5 mph - N/A   Clear
7:54 PM 68.0 °F 55.9 °F 65% 29.86 in 10.0 mi South 6.9 mph - N/A   Clear
8:54 PM 64.9 °F 55.9 °F 73% 29.87 in 10.0 mi SE 5.8 mph - N/A   Clear
9:54 PM 61.0 °F 55.0 °F 81% 29.91 in 10.0 mi ESE 4.6 mph - N/A   Mostly Cloudy
10:54 PM 62.1 °F 55.0 °F 78% 29.90 in 10.0 mi SSE 8.1 mph - N/A   Clear
11:54 PM 62.1 °F 55.0 °F 78% 29.91 in 10.0 mi SSE 10.4 mph - N/A   Partly Cloudy